Epoch 2023 Sept. 13.0 TT = JDT 2460200.5                Alexandersen            
M  90.21410              (2000.0)            P               Q                  
n   0.00330278     Peri.  254.42247     -0.22374080     +0.97463840             
a  44.6563156      Node     2.66094     -0.85321306     -0.19364206             
e   0.0696824      Incl.    5.53248     -0.47113431     -0.11217279             
P 298              H    9.12          G   0.15           U   5                  
Residuals in seconds of arc
K198T  W84  0.1+  0.1+    K199R  W84  0.0   0.2-    K21A7  W84  0.0   0.0  
K198T  W84  0.2-  0.1-    K20AH  W84  0.1-  0.1-    K21A7  W84  0.0   0.0  
K199R  W84  0.0   0.1+    K20AH  W84  0.1+  0.1+    
2019 QA110                                                                      
Epoch 2023 Sept. 13.0 TT = JDT 2460200.5                Alexandersen            
M  72.25599              (2000.0)            P               Q                  
n   0.00320522     Peri.  126.16272     +0.04895068     +0.99860403             
a  45.5579939      Node   146.62649     -0.92757793     +0.05281952             
e   0.0965017      Incl.    2.06743     -0.37040926     -0.00030205             
P 308              H    8.11          G   0.15           U   5                  
Residuals in seconds of arc
K198S  W84  0.1+  0.0     K199R  W84  0.1+  0.0     K2195  W84  0.1+  0.0  
K198S  W84  0.1-  0.0     K199R  W84  0.0   0.0     K2195  W84  0.1-  0.1+ 
K198T  W84  0.0   0.1+    K20AH  W84  0.0   0.0     
K198T  W84  0.1-  0.0     K20AH  W84  0.0   0.0     
2019 QB110                                                                      
Epoch 2023 Sept. 13.0 TT = JDT 2460200.5                Alexandersen            
M  10.99933              (2000.0)            P               Q                  
n   0.00351630     Peri.  341.56198     +0.96649169     +0.25666873             
a  42.8297523      Node     3.57230     -0.22701247     +0.86166276             
e   0.0315038      Incl.    3.56041     -0.11982965     +0.43778814             
P 280              H    8.72          G   0.15           U   6                  
Residuals in seconds of arc
K198S  W84  0.0   0.1-    K20AH  W84  0.0   0.1+    K2196  W84  0.1+  0.1+ 
K198S  W84  0.0   0.1+    K20AH  W84  0.1-  0.1-    K2196  W84  0.2-  0.1- 
K199T  W84  0.1-  0.1+    K20AI  W84  0.0   0.0     K21A4  W84  0.1+  0.0  
K199T  W84  0.0   0.0     K20AI  W84  0.1+  0.0     K21A4  W84  0.0   0.0  
2019 QC110                                                                      
Epoch 2023 Sept. 13.0 TT = JDT 2460200.5                Alexandersen            
M 348.61573              (2000.0)            P               Q                  
n   0.00313807     Peri.  278.17980     +0.98979333     -0.14215646             
a  46.2055174      Node    89.99326     +0.13438356     +0.90759543             
e   0.0129232      Incl.    0.57496     +0.04743644     +0.39504693             
P 314              H    7.96          G   0.15           U   7                  
Residuals in seconds of arc
K198S  W84  0.0   0.0     K199T  W84  0.0   0.0     K21A4  W84  0.1+  0.0  
K198S  W84  0.0   0.0     K2196  W84  0.1+  0.0     K21A4  W84  0.1-  0.0  
K199T  W84  0.0   0.1-    K2196  W84  0.1-  0.0     
2019 QD110                                                                      
Epoch 2023 Sept. 13.0 TT = JDT 2460200.5                Alexandersen            
M 119.91696              (2000.0)            P               Q                  
n   0.00345255     Peri.   76.21814     -0.61007327     +0.79210515             
a  43.3553540      Node   156.15402     -0.74432019     -0.56448721             
e   0.0479685      Incl.    2.76390     -0.27165798     -0.23221461             
P 285              H    9.74          G   0.15           U   6                  
Residuals in seconds of arc
K198S  W84  0.2+  0.1+    K199T  W84  0.2+  0.1+    K21A4  W84  0.1+  0.0  
K198S  W84  0.3-  0.0     K20AI  W84  0.3+  0.1+    K21A4  W84  0.1-  0.1+ 
K199T  W84  0.2-  0.1-    K20AI  W84  0.2-  0.2-    
2019 QE110                                                                      
Epoch 2023 Sept. 13.0 TT = JDT 2460200.5                Alexandersen            
M 357.01957              (2000.0)            P               Q                  
n   0.00339514     Peri.  356.40241     +0.99996550     +0.00809343             
a  43.8427362      Node     3.13569     -0.00650979     +0.90335166             
e   0.0193649      Incl.    1.95837     -0.00515952     +0.42882430             
P 290              H    8.29          G   0.15           U   7                  
Residuals in seconds of arc
K198S  W84  0.1+  0.0     K199T  W84  0.0   0.0     K21A3  W84  0.0   0.0  
K198S  W84  0.1-  0.1+    K2196  W84  0.2+  0.0     K21A3  W84  0.0   0.0  
K199T  W84  0.0   0.1-    K2196  W84  0.2-  0.0     
2019 SH235                                                                      
Epoch 2023 Sept. 13.0 TT = JDT 2460200.5                Alexandersen            
M 346.69339              (2000.0)            P               Q                  
n   0.00309934     Peri.   22.10721     +0.96224934     -0.26572328             
a  46.5896591      Node   352.52800     +0.12692044     +0.62948346             
e   0.1417242      Incl.   26.92409     +0.24076421     +0.73016554             
P 318              H    8.95          G   0.15           U   6                  
Residuals in seconds of arc
K198S  W84  0.0   0.1-    K199T  W84  0.0   0.0     K2194  W84  0.2+  0.0  
K198S  W84  0.0   0.0     K199T  W84  0.0   0.0     K2194  W84  0.2-  0.0  
K199R  W84  0.1+  0.0     K20AH  W84  0.0   0.0     K21A3  W84  0.0   0.1- 
K199R  W84  0.1-  0.0     K20AH  W84  0.0   0.0     K21A3  W84  0.0   0.0  
2019 SJ235                                                                      
Epoch 2023 Sept. 13.0 TT = JDT 2460200.5                Alexandersen            
M 133.29737              (2000.0)            P               Q                  
n   0.00359094     Peri.  226.71604     -0.77588228     +0.62944720             
a  42.2341930      Node   351.96037     -0.45422721     -0.60407050             
e   0.0489729      Incl.   17.67384     -0.43781769     -0.48876892             
P 274              H    9.71          G   0.15           U   6                  
Residuals in seconds of arc
K198S  W84  0.4+  0.2+    K199T  W84  0.1+  0.3+    K21A3  W84  0.1+  0.0  
K198S  W84  0.4-  0.0     K20AH  W84  0.1+  0.3-    K21A3  W84  0.1-  0.1+ 
K199T  W84  0.1-  0.4-    K20AH  W84  0.0   0.1+    
2020 UX73                                                                       
Epoch 2023 Sept. 13.0 TT = JDT 2460200.5                Alexandersen            
M 331.23623              (2000.0)            P               Q                  
n   0.00420259     Peri.  221.59228     +0.83583528     -0.54410701             
a  38.0298414      Node   170.50600     +0.54235805     +0.83901025             
e   0.0855381      Incl.   26.26277     -0.08501255     +0.00305995             
P 235              H    9.73          G   0.15           U   6                  
Residuals in seconds of arc
K198S  W84  0.1+  0.1+    K20AI  W84  0.0   0.0     K21A6  W84  0.0   0.1- 
K198S  W84  0.0   0.1-    K20AI  W84  0.0   0.0     K21A6  W84  0.1+  0.0  
K20AH  W84  0.0   0.0     K2199  W84  0.0   0.1+    K21A7  W84  0.1+  0.0  
K20AH  W84  0.0   0.0     K2199  W84  0.1-  0.0     K21A7  W84  0.1-  0.0  
M. P. C. Staff               (C) Copyright 2023 MPC           M.P.E.C. 2023-W139
    
    
More information about the Iaude
mailing list